[[{"header":{"parameterUnit":"m.s-1","parameterCategory":1,"la1":30.2991,"la2":30.254,"lo1":-89.0895,"lo2":-89.0444,"dy":0.0017,"dx":0.0017,"nx":28,"ny":28,"refTime":"2025-06-16T21:00:00:Z","depth":0,"parameterNumber":2,"parameterNumberName":"U-component_of_WINDS"},"data":[0,0,0,0,0,0,0,0,0,0,0,0,0,0,0,0,0,0,0,0,0,0,0,0,0,0,0,0,0,0,0,0,0,0,0,0,0,0,0,0,0,0,0,0,0,0,0,0,0,0,0,0,0,0,0,0,0,0,1.0796,1.0796,0,1.072,1.0719,1.0718,1.0649,1.0648,1.0647,1.0647,1.0569,1.0568,1.0567,0,0,0,0,0,0,0,0,0,0,0,0,0,1.0882,1.0881,1.0797,1.0796,1.0795,1.072,1.0719,1.0718,1.0649,1.0648,1.0647,1.0646,1.057,1.0568,1.0567,0,0,0,0,0,0,0,0,0,0,0,0,0,1.0829,1.0881,1.0797,1.0751,1.0746,1.072,1.0719,1.0718,1.0649,1.0648,1.0647,1.0646,1.057,1.0568,1.0566,1.0579,0,0,1.0561,1.056,0,0,0,0,0,0,0,0,1.0832,1.0826,1.0759,1.0754,1.0749,1.0693,1.0721,1.0671,1.065,1.0686,1.0647,1.0645,1.0611,1.0606,1.0594,1.0576,1.0572,1.056,1.0559,1.0558,1.0558,0,0,0,0,0,0,0,1.0836,1.0829,1.0766,1.0758,1.0752,1.0734,1.0725,1.0711,1.0657,1.0683,1.0678,1.067,1.0608,1.0596,1.0592,1.0571,1.056,1.0559,1.0558,1.0557,1.0555,1.0556,0,0,0,0,0,0,1.0847,1.0833,1.0769,1.0764,1.0788,1.0734,1.0724,1.0712,1.0657,1.0647,1.0671,1.0667,1.06,1.0594,1.0589,1.0598,1.0558,1.0557,1.0556,1.0554,1.0556,1.0557,0,0,0,0,0,0,1.0849,1.0842,1.0772,1.0797,1.0786,1.0734,1.0721,1.0711,1.0699,1.0647,1.0637,1.0668,1.0599,1.0592,1.0581,1.0594,1.0556,1.0554,1.0553,1.0555,1.0556,1.0617,0,0,0,0,0,0,1.0852,1.0843,1.0848,1.0797,1.0785,1.0766,1.0722,1.0711,1.0696,1.069,1.0643,1.0634,1.0598,1.0585,1.0579,1.0591,1.0552,1.0551,1.0554,1.0556,1.0613,1.062,1.0626,0,0,0,0,0,1.0855,1.0869,1.0848,1.0841,1.079,1.0767,1.076,1.0718,1.0697,1.0701,1.0667,1.0635,1.0594,1.0584,1.0578,1.0589,1.055,1.0553,1.0555,1.0611,1.0619,1.0626,0,0,0,0,0,0,1.0923,1.0862,1.0838,1.0836,1.0807,1.0755,1.0759,1.0729,1.0705,1.07,1.0649,1.0639,1.0634,1.061,1.0601,1.0596,1.0568,1.0569,1.0612,1.0619,1.0626,1.0631,1.0551,0,0,0,0,0,1.0938,1.0924,1.0871,1.0874,1.0861,1.0812,1.0801,1.077,1.0738,1.0726,1.0691,1.0662,1.0641,1.0629,1.0608,1.061,1.0597,1.0614,1.0621,1.0626,1.0627,1.0623,1.0629,1.0565,1.0565,1.0565,0,0,1.0968,1.0933,1.0927,1.0887,1.0861,1.0846,1.0803,1.079,1.0778,1.0724,1.0711,1.0685,1.0648,1.0643,1.0639,1.0623,1.0642,1.0629,1.0634,1.0632,1.0627,1.0633,1.0638,1.0567,1.0566,1.0566,0,0,1.1016,1.0989,1.0987,1.0961,1.0921,1.0889,1.0888,1.084,1.082,1.0806,1.0764,1.075,1.0717,1.0691,1.0674,1.0709,1.0678,1.0704,1.0737,1.0734,1.0739,1.0743,1.0753,1.0757,1.0706,1.0706,1.0706,0,1.1059,1.1035,1.099,1.0979,1.0961,1.091,1.0907,1.0884,1.084,1.0829,1.0812,1.0767,1.0739,1.0726,1.0734,1.0723,1.0719,1.0708,1.0742,1.0745,1.0749,1.0757,1.0762,1.0709,1.0709,1.0708,1.0708,0,1.1088,1.1073,1.1076,1.1033,1.1016,1.101,1.0962,1.095,1.0921,1.089,1.0875,1.0839,1.0808,1.0803,1.0776,1.0785,1.0776,1.0751,1.0721,1.0759,1.0766,1.0769,1.0714,1.0713,1.0712,1.0711,0,0,1.1177,1.1107,1.1109,1.1088,1.1039,1.1026,1.1016,1.0985,1.0975,1.0946,1.0935,1.0907,1.0883,1.0863,1.0832,1.0829,1.0855,1.0804,1.0802,1.0813,1.086,1.0878,1.0882,1.0835,1.0835,1.0836,1.0862,0,1.1215,1.1193,1.1151,1.1143,1.1126,1.1077,1.1067,1.1036,1.1007,1.0988,1.0955,1.0935,1.0906,1.0893,1.0889,1.0854,1.0864,1.0851,1.0823,1.0822,1.0831,1.0887,1.0906,1.0933,1.0865,1.0866,1.0866,0,1.1256,1.1228,1.1218,1.1168,1.1159,1.1152,1.1118,1.1102,1.1065,1.1043,1.102,1.0985,1.097,1.0943,1.0921,1.0913,1.0899,1.088,1.088,1.0874,1.0845,1.088,1.094,1.0944,1.0871,1.087,1.087,0,1.1318,1.1278,1.1266,1.125,1.1192,1.1187,1.1163,1.1125,1.1108,1.1079,1.1066,1.1037,1.102,1.0997,1.0954,1.0939,1.0936,1.0906,1.0916,1.0917,1.0916,1.0917,1.0973,1.0911,1.0911,1.0911,1.0911,0,1.1363,1.1358,1.1293,1.1285,1.1278,1.1229,1.1222,1.1193,1.1159,1.1144,1.11,1.1087,1.1032,1.1012,1.0979,1.0964,1.0957,1.0938,1.0929,1.0941,1.0943,1.093,1.0926,1.0912,1.0912,1.0912,1.0911,0,1.1431,1.1387,1.137,1.1316,1.1302,1.1299,1.1252,1.1242,1.1209,1.119,1.1183,1.1131,1.1105,1.1061,1.1022,1.1,1.099,1.0976,1.1003,1.0997,1.1008,1.1006,1.1056,1.1059,1.0998,1.0998,1.0999,0,1.1462,1.1456,1.1401,1.1387,1.1364,1.1344,1.1325,1.1277,1.126,1.1215,1.121,1.118,1.1154,1.1114,1.1073,1.1043,1.1026,1.1045,1.1021,1.1032,1.1023,1.1023,1.1021,1.105,1.1051,1.1052,1.1053,0,1.152,1.1498,1.1473,1.1441,1.142,1.1392,1.1362,1.1354,1.1298,1.1281,1.1253,1.1232,1.1191,1.1162,1.1125,1.1099,1.1066,1.1061,1.1061,1.1072,1.1086,1.1076,1.1015,1.106,1.1059,1.1058,1.1058,1.1058,1.1568,1.156,1.1519,1.1492,1.1464,1.1436,1.1423,1.1388,1.1364,1.1327,1.13,1.1273,1.1233,1.118,1.1156,1.1134,1.1119,1.112,1.112,1.112,1.1124,1.1091,1.1128,1.1127,1.1127,1.1127,1.1127,0,1.1621,1.1592,1.1568,1.1527,1.1505,1.1476,1.144,1.1424,1.1401,1.1367,1.1341,1.1308,1.1278,1.1234,1.1201,1.1191,1.1175,1.1184,1.1183,1.1177,1.114,1.1142,1.1197,1.1197,1.1197,1.1197,1.1197,1.1197,1.1647,1.163,1.1603,1.1572,1.1542,1.1516,1.1497,1.1471,1.1443,1.1408,1.1382,1.1354,1.1314,1.1277,1.1248,1.1236,1.1224,1.1238,1.122,1.1187,1.118,1.1174,1.1175,1.1236,1.1236,1.1258,1.1259,1.1259]},{"header":{"parameterUnit":"m.s-1","parameterCategory":1,"la1":30.2991,"la2":30.254,"lo1":-89.0895,"lo2":-89.0444,"dy":0.0017,"dx":0.0017,"nx":28,"ny":28,"refTime":"2025-06-16T21:00:00:Z","depth":0,"parameterNumber":3,"parameterNumberName":"V-component_of_WINDS"},"data":[0,0,0,0,0,0,0,0,0,0,0,0,0,0,0,0,0,0,0,0,0,0,0,0,0,0,0,0,0,0,0,0,0,0,0,0,0,0,0,0,0,0,0,0,0,0,0,0,0,0,0,0,0,0,0,0,0,0,4.3742,4.3745,0,4.3982,4.3984,4.3987,4.4036,4.4034,4.4032,4.4031,4.4275,4.4283,4.4291,0,0,0,0,0,0,0,0,0,0,0,0,0,4.3324,4.3332,4.3742,4.3745,4.3748,4.3981,4.3985,4.3988,4.4036,4.4034,4.4032,4.403,4.4272,4.4282,4.4292,0,0,0,0,0,0,0,0,0,0,0,0,0,4.3529,4.3334,4.3741,4.38,4.3808,4.3981,4.3985,4.3989,4.4037,4.4034,4.4031,4.4029,4.4269,4.4281,4.4293,4.4424,0,0,4.4331,4.4336,0,0,0,0,0,0,0,0,4.3517,4.3544,4.3789,4.3797,4.3805,4.3976,4.3927,4.4135,4.4037,4.395,4.4031,4.4027,4.4178,4.4197,4.4248,4.4435,4.4446,4.4332,4.4339,4.4345,4.4348,0,0,0,0,0,0,0,4.3503,4.3534,4.3837,4.3792,4.3802,4.3814,4.384,4.3967,4.4076,4.3957,4.3961,4.3989,4.4182,4.4236,4.4254,4.4449,4.4332,4.4342,4.435,4.4355,4.4753,4.4756,0,0,0,0,0,0,4.3479,4.3522,4.3829,4.3844,4.3652,4.3824,4.3853,4.3924,4.4075,4.4095,4.3991,4.3991,4.4217,4.424,4.4263,4.4425,4.4344,4.4356,4.4363,4.475,4.4754,4.4757,0,0,0,0,0,0,4.347,4.3506,4.3819,4.3684,4.3725,4.3834,4.3913,4.393,4.3985,4.4101,4.412,4.4027,4.4215,4.4246,4.4383,4.4434,4.4362,4.4373,4.4746,4.4751,4.4756,4.4749,0,0,0,0,0,0,4.3457,4.3502,4.3553,4.3685,4.3732,4.3936,4.3917,4.3937,4.4006,4.4007,4.4139,4.4158,4.4216,4.4364,4.4395,4.4449,4.4382,4.4742,4.4748,4.4754,4.4745,4.4753,4.4759,0,0,0,0,0,4.3442,4.3542,4.3556,4.3593,4.3799,4.3939,4.3966,4.403,4.401,4.4062,4.4136,4.4154,4.4423,4.4378,4.4413,4.4472,4.4739,4.4747,4.4754,4.4742,4.4751,4.4759,0,0,0,0,0,0,4.3414,4.3561,4.3577,4.3723,4.3818,4.3947,4.4015,4.4038,4.4141,4.4138,4.4212,4.4242,4.4374,4.4437,4.4384,4.4605,4.458,4.4595,4.4559,4.4569,4.4576,4.4558,4.4393,0,0,0,0,0,4.3425,4.3527,4.3649,4.3766,4.3813,4.3905,4.3969,4.401,4.4111,4.4151,4.4236,4.4333,4.4439,4.4508,4.4612,4.4754,4.4783,4.4812,4.4819,4.4824,4.4836,4.4914,4.4927,4.4781,4.4781,4.4781,0,0,4.3448,4.3541,4.3601,4.3762,4.3841,4.3944,4.3939,4.4049,4.4126,4.4168,4.4303,4.4367,4.4481,4.4621,4.4686,4.4677,4.4882,4.4834,4.4837,4.4846,4.4922,4.4936,4.4948,4.4786,4.4785,4.4784,0,0,4.3542,4.3623,4.3729,4.3807,4.3926,4.3986,4.4011,4.4137,4.4181,4.4318,4.4351,4.4443,4.4625,4.4704,4.4768,4.489,4.491,4.4922,4.496,4.5035,4.5046,4.5057,4.5099,4.5113,4.4934,4.4934,4.4934,0,4.3556,4.3713,4.378,4.3888,4.3957,4.4,4.4106,4.4179,4.4326,4.4372,4.436,4.4588,4.4668,4.4825,4.4855,4.4906,4.4936,4.4907,4.5039,4.5051,4.5062,4.5102,4.5118,4.4934,4.4934,4.4934,4.4934,0,4.3723,4.3831,4.3902,4.4042,4.4119,4.4226,4.4307,4.4378,4.4412,4.4473,4.461,4.4707,4.483,4.4871,4.4906,4.5034,4.5024,4.5025,4.5001,4.5075,4.5114,4.5131,4.4935,4.4935,4.4935,4.4934,0,0,4.3807,4.3981,4.4006,4.4069,4.4202,4.4287,4.4395,4.4516,4.4574,4.4673,4.4764,4.4917,4.4918,4.499,4.5034,4.51,4.5188,4.5092,4.5096,4.5105,4.5333,4.533,4.5347,4.5202,4.5206,4.5208,4.5323,0,4.3916,4.411,4.4172,4.4333,4.4433,4.4475,4.4568,4.466,4.472,4.4813,4.4879,4.4985,4.4979,4.5023,4.509,4.5163,4.5234,4.5156,4.5287,4.529,4.5256,4.5369,4.5367,4.547,4.5339,4.5341,4.5343,0,4.407,4.4171,4.4342,4.4461,4.4505,4.4588,4.4703,4.4792,4.4896,4.4935,4.5014,4.5052,4.5165,4.5135,4.5291,4.5236,4.5293,4.5337,4.5342,4.5356,4.532,4.5384,4.5505,4.552,4.5369,4.5367,4.5365,0,4.4111,4.429,4.4415,4.4468,4.4611,4.4668,4.473,4.4831,4.4899,4.5,4.5044,4.5156,4.5217,4.5303,4.5369,4.5342,4.5519,4.5495,4.5553,4.5551,4.5588,4.5584,4.5718,4.5626,4.5626,4.5626,4.5625,0,4.4226,4.4329,4.4436,4.4512,4.4628,4.4698,4.481,4.4874,4.4964,4.5053,4.5096,4.5179,4.5262,4.5356,4.5408,4.5528,4.5556,4.559,4.5602,4.5585,4.558,4.5623,4.5617,4.563,4.5629,4.5628,4.5628,0,4.4292,4.4368,4.4506,4.463,4.4663,4.4742,4.4847,4.4923,4.4984,4.5096,4.5127,4.5223,4.5335,4.541,4.5553,4.5589,4.5718,4.573,4.5683,4.5689,4.5742,4.5735,4.5907,4.5932,4.5824,4.5825,4.5826,0,4.436,4.4439,4.457,4.4633,4.4695,4.4796,4.4865,4.4937,4.5007,4.5131,4.5191,4.5306,4.5401,4.5578,4.566,4.5769,4.5783,4.5836,4.58,4.578,4.5782,4.5776,4.5784,4.5841,4.5842,4.5842,4.5843,0,4.4471,4.4504,4.4603,4.4714,4.4795,4.4887,4.4978,4.5027,4.5114,4.5191,4.5306,4.538,4.5525,4.5638,4.5755,4.5818,4.5845,4.5854,4.5873,4.5855,4.5824,4.584,4.5697,4.5849,4.5849,4.5848,4.5848,4.5848,4.4539,4.4611,4.4714,4.4821,4.4898,4.4982,4.5058,4.5128,4.5225,4.535,4.5386,4.5505,4.5606,4.5765,4.583,4.5924,4.5918,4.5946,4.5953,4.5958,4.5958,4.581,4.5945,4.5945,4.5945,4.5945,4.5945,0,4.4651,4.4719,4.4817,4.4943,4.5027,4.5045,4.5147,4.5216,4.532,4.5412,4.5505,4.5636,4.5745,4.5835,4.5948,4.6005,4.602,4.6032,4.6028,4.6042,4.5957,4.5928,4.6018,4.6018,4.6018,4.6018,4.6018,4.6018,4.4719,4.4841,4.4886,4.5045,4.5113,4.523,4.5286,4.5363,4.5436,4.5581,4.5671,4.573,4.5821,4.594,4.6041,4.6064,4.6103,4.6112,4.6138,4.6057,4.6048,4.604,4.6014,4.612,4.612,4.6216,4.6217,4.6217]}]]